Location: Kumla
(59.1265°N, 15.1401°E)
Time: 18:13:31
(UTC+01:00)

Transit 2A - Pass Details

Date: 12 December 2023
Orbit: 600 x 953 km, 66.7° (Epoch: 27 February)

Event Time Altitude Azimuth Distance (km) Brightness Sun altitude
Rises 18:48:18 0° 295° (WNW) 2,937 10.0 -26.7°
Reaches altitude 10° 18:50:49 10° 305° (NW) 1,995 8.8 -27.0°
Enters shadow 18:53:38 28° 338° (NNW) 1,164 7.1 -27.4°
Maximum altitude 18:54:51 33° 10° (N) 1,039 - -27.5°
Drops below altitude 10° 18:58:47 10° 75° (ENE) 1,951 - -28.0°
Sets 19:01:13 0° 85° (E) 2,862 - -28.3°
